QPF
0.03 0.03 0.03 0.04 0.06 0.07 0.10 0.16 0.22 0.33 0.41 0.39 0.28 0.23 0.29 0.39 0.43 0.36 0.32 0.31 0.30 0.31 0.28 0.25 0.25 0.25 0.24 0.22 0.22 0.26 0.27 0.23 0.18 0.19 0.16 0.16 0.22 0.21 0.15 0.12 0.10 0.08 0.06
0.05 0.05 0.03 0.04 0.06 0.08 0.09 0.10 0.13 0.20 0.21 0.22 0.21 0.22 0.27 0.33 0.41 0.41 0.36 0.32 0.30 0.29 0.30 0.30 0.27 0.23 0.22 0.23 0.21 0.21 0.23 0.21 0.16 0.15 0.15 0.14 0.16 0.16 0.14 0.12 0.09 0.07 0.05
0.06 0.06 0.03 0.03 0.04 0.06 0.08 0.07 0.07 0.09 0.12 0.15 0.18 0.21 0.25 0.28 0.28 0.29 0.29 0.29 0.27 0.24 0.23 0.22 0.21 0.20 0.19 0.19 0.21 0.21 0.20 0.20 0.18 0.14 0.14 0.14 0.14 0.13 0.14 0.12 0.09 0.07 0.05
0.10 0.09 0.05 0.05 0.04 0.04 0.05 0.07 0.09 0.10 0.13 0.15 0.15 0.17 0.20 0.23 0.22 0.21 0.23 0.23 0.18 0.16 0.14 0.13 0.16 0.14 0.16 0.16 0.16 0.17 0.18 0.19 0.20 0.18 0.15 0.13 0.12 0.12 0.12 0.11 0.08 0.05 0.03
0.08 0.07 0.06 0.07 0.05 0.04 0.05 0.07 0.09 0.10 0.11 0.14 0.15 0.16 0.18 0.20 0.19 0.17 0.16 0.17 0.17 0.15 0.14 0.14 0.18 0.17 0.15 0.14 0.14 0.13 0.13 0.15 0.16 0.18 0.19 0.18 0.14 0.10 0.08 0.09 0.07 0.05 0.03
0.11 0.10 0.10 0.12 0.08 0.06 0.08 0.12 0.14 0.11 0.11 0.14 0.13 0.13 0.14 0.13 0.13 0.12 0.12 0.13 0.15 0.15 0.15 0.18 0.21 0.22 0.19 0.16 0.13 0.13 0.12 0.11 0.11 0.12 0.14 0.15 0.14 0.12 0.09 0.08 0.08 0.06 0.05
0.10 0.10 0.09 0.10 0.11 0.11 0.08 0.09 0.12 0.13 0.12 0.10 0.10 0.10 0.11 0.10 0.09 0.10 0.10 0.12 0.14 0.15 0.15 0.19 0.20 0.20 0.18 0.15 0.13 0.13 0.13 0.10 0.09 0.09 0.09 0.10 0.10 0.08 0.07 0.07 0.06 0.05 0.04
0.06 0.11 0.07 0.05 0.06 0.08 0.08 0.08 0.08 0.11 0.13 0.10 0.07 0.06 0.07 0.08 0.08 0.08 0.09 0.10 0.11 0.15 0.19 0.21 0.23 0.19 0.18 0.19 0.19 0.16 0.13 0.11 0.11 0.09 0.08 0.08 0.07 0.06 0.06 0.06 0.05 0.04 0.04
0.07 0.06 0.04 0.03 0.04 0.04 0.05 0.07 0.08 0.09 0.09 0.09 0.09 0.08 0.07 0.06 0.06 0.06 0.06 0.06 0.07 0.09 0.11 0.14 0.18 0.19 0.18 0.16 0.14 0.11 0.09 0.09 0.09 0.09 0.07 0.05 0.04 0.03 0.03 0.03 0.03 0.03 0.03
0.05 0.03 0.02 0.02 0.02 0.02 0.02 0.05 0.07 0.07 0.06 0.07 0.08 0.12 0.08 0.05 0.03 0.03 0.03 0.04 0.05 0.06 0.06 0.06 0.08 0.09 0.09 0.09 0.08 0.08 0.07 0.07 0.07 0.06 0.05 0.04 0.03 0.02 0.02 0.03 0.02 0.01 0.01
0.03 0.03 0.02 0.02 0.01 0.01 0.02 0.03 0.04 0.06 0.06 0.06 0.06 0.05 0.05 0.04 0.02 0.02 0.02 0.02 0.03 0.04 0.05 0.05 0.06 0.06 0.07 0.08 0.08 0.08 0.08 0.07 0.06 0.04 0.03 0.03 0.02 0.02 0.02 0.02 0.01 0.01 0.01
0.03 0.02 0.01 0.01 0.01 0.02 0.02 0.02 0.02 0.03 0.04 0.05 0.06 0.06 0.05 0.05 0.04 0.03 0.03 0.03 0.03 0.03 0.03 0.04 0.05 0.05 0.04 0.05 0.05 0.06 0.05 0.04 0.04 0.03 0.03 0.03 0.02 0.02 0.01 0.01 0.01 0.00 0.00
0.04 0.02 0.01 0.01 0.02 0.02 0.03 0.04 0.04 0.03 0.04 0.03 0.04 0.06 0.06 0.06 0.06 0.05 0.05 0.04 0.03 0.02 0.03 0.03 0.03 0.03 0.03 0.03 0.04 0.05 0.05 0.05 0.05 0.05 0.05 0.05 0.04 0.04 0.02 0.01 0.01 0.00 0.00
0.04 0.02 0.01 0.01 0.02 0.02 0.02 0.04 0.05 0.05 0.05 0.04 0.04 0.05 0.06 0.06 0.05 0.05 0.06 0.05 0.04 0.03 0.02 0.02 0.01 0.01 0.01 0.02 0.03 0.03 0.03 0.03 0.03 0.03 0.03 0.02 0.02 0.02 0.02 0.01 0.01 0.00 0.00
0.04 0.03 0.03 0.03 0.03 0.02 0.02 0.02 0.03 0.04 0.05 0.05 0.05 0.05 0.05 0.05 0.04 0.04 0.04 0.04 0.03 0.02 0.02 0.01 0.01 0.01 0.01 0.02 0.02 0.02 0.02 0.02 0.02 0.01 0.01 0.01 0.01 0.01 0.01 0.01 0.01 0.01 0.01
0.04 0.04 0.05 0.05 0.03 0.02 0.02 0.02 0.02 0.04 0.04 0.05 0.05 0.05 0.04 0.04 0.04 0.03 0.03 0.02 0.02 0.02 0.01 0.01 0.01 0.01 0.01 0.01 0.01 0.01 0.01 0.01 0.01 0.01 0.00 0.00 0.00 0.01 0.01 0.01 0.01 0.01 0.00
0.04 0.04 0.04 0.04 0.03 0.02 0.02 0.02 0.03 0.03 0.04 0.04 0.04 0.04 0.05 0.05 0.04 0.03 0.03 0.03 0.03 0.02 0.02 0.01 0.01 0.01 0.01 0.01 0.01 0.01 0.01 0.01 0.01 0.01 0.01 0.01 0.01 0.01 0.01 0.01 0.01 0.00 0.00
0.02 0.03 0.03 0.03 0.02 0.02 0.02 0.02 0.02 0.03 0.03 0.03 0.03 0.04 0.05 0.06 0.05 0.04 0.04 0.04 0.03 0.02 0.01 0.01 0.00 0.00 0.00 0.00 0.00 0.01 0.01 0.01 0.01 0.01 0.01 0.01 0.01 0.01 0.01 0.01 0.01 0.01 0.00
0.01 0.02 0.02 0.02 0.02 0.02 0.02 0.02 0.02 0.02 0.03 0.03 0.03 0.04 0.05 0.06 0.05 0.05 0.04 0.03 0.02 0.02 0.01 0.01 0.01 0.00 0.00 0.00 0.00 0.00 0.01 0.01 0.01 0.00 0.00 0.00 0.00 0.01 0.01 0.01 0.01 0.01 0.01
0.01 0.01 0.02 0.02 0.02 0.02 0.02 0.01 0.02 0.02 0.02 0.03 0.03 0.04 0.04 0.04 0.03 0.03 0.03 0.02 0.02 0.02 0.01 0.01 0.01 0.00 0.00 0.00 0.00 0.00 0.00 0.01 0.00 0.00 0.00 0.00 0.00 0.00 0.00 0.00 0.00 0.00 0.00
0.02 0.01 0.01 0.01 0.01 0.01 0.01 0.02 0.02 0.03 0.03 0.03 0.03 0.03 0.03 0.03 0.02 0.02 0.02 0.02 0.02 0.01 0.01 0.01 0.01 0.00 0.00 0.00 0.00 0.00 0.00 0.00 0.00 0.00 0.00 0.00 0.00 0.00 0.00 0.00 0.00 0.00 0.00
0.02 0.02 0.01 0.02 0.01 0.01 0.01 0.01 0.02 0.02 0.03 0.03 0.03 0.03 0.03 0.02 0.02 0.02 0.02 0.01 0.01 0.01 0.01 0.01 0.00 0.00 0.00 0.00 0.00 0.00 0.00 0.00 0.00 0.00 0.00 0.00 0.00 0.00 0.00 0.00 0.00 0.00 0.00
0.01 0.02 0.02 0.02 0.02 0.01 0.02 0.02 0.02 0.02 0.03 0.03 0.03 0.03 0.03 0.02 0.01 0.01 0.01 0.01 0.01 0.01 0.00 0.01 0.00 0.00 0.00 0.00 0.00 0.00 0.00 0.00 0.00 0.00 0.00 0.00 0.00 0.00 0.00 0.00 0.00 0.00 0.00
0.01 0.02 0.01 0.01 0.02 0.02 0.02 0.02 0.02 0.03 0.03 0.02 0.01 0.01 0.01 0.01 0.01 0.01 0.00 0.00 0.00 0.00 0.00 0.00 0.00 0.00 0.00 0.00 0.00 0.00 0.00 0.00 0.00 0.00 0.00 0.00 0.00 0.00 0.00 0.00 0.00 0.00 0.00
0.01 0.01 0.01 0.01 0.01 0.02 0.03 0.02 0.02 0.02 0.02 0.01 0.01 0.01 0.01 0.01 0.00 0.00 0.00 0.00 0.00 0.00 0.00 0.00 0.00 0.00 0.00 0.00 0.00 0.00 0.00 0.00 0.00 0.00 0.00 0.00 0.00 0.00 0.00 0.00 0.00 0.00 0.00
0.01 0.01 0.01 0.01 0.01 0.01 0.01 0.01 0.01 0.01 0.01 0.01 0.01 0.01 0.00 0.00 0.00 0.00 0.00 0.00 0.00 0.00 0.00 0.00 0.00 0.00 0.00 0.00 0.00 0.00 0.00 0.00 0.00 0.00 0.00 0.00 0.00 0.00 0.00 0.00 0.00 0.00 0.00
MSLP
1012.71 1013.01 1013.16 1013.14 1012.97 1012.70 1012.40 1012.12 1011.93 1011.87 1011.94 1012.13 1012.43 1012.79 1013.16 1013.52 1013.82 1014.07 1014.24 1014.36 1014.43 1014.48 1014.52 1014.57 1014.65 1014.79 1015.00 1015.31 1015.70 1016.20 1016.79 1017.45 1018.16 1018.88 1019.57 1020.18 1020.69 1021.08 1021.33 1021.46 1021.50 1021.47 1021.43
1013.21 1013.56 1013.73 1013.71 1013.51 1013.18 1012.79 1012.41 1012.11 1011.95 1011.93 1012.05 1012.29 1012.61 1012.97 1013.32 1013.63 1013.88 1014.08 1014.22 1014.31 1014.38 1014.43 1014.48 1014.55 1014.66 1014.82 1015.07 1015.41 1015.86 1016.43 1017.10 1017.85 1018.63 1019.41 1020.14 1020.78 1021.30 1021.67 1021.91 1022.04 1022.09 1022.09
1013.66 1014.05 1014.26 1014.26 1014.05 1013.68 1013.23 1012.78 1012.39 1012.13 1012.03 1012.08 1012.27 1012.55 1012.88 1013.23 1013.55 1013.83 1014.05 1014.23 1014.35 1014.45 1014.51 1014.56 1014.61 1014.67 1014.78 1014.95 1015.22 1015.59 1016.10 1016.73 1017.46 1018.26 1019.09 1019.90 1020.64 1021.28 1021.78 1022.15 1022.40 1022.55 1022.64
1014.07 1014.50 1014.75 1014.78 1014.59 1014.22 1013.75 1013.24 1012.80 1012.47 1012.30 1012.28 1012.41 1012.66 1012.97 1013.30 1013.64 1013.94 1014.20 1014.41 1014.58 1014.71 1014.79 1014.84 1014.87 1014.89 1014.94 1015.03 1015.20 1015.48 1015.89 1016.44 1017.11 1017.88 1018.70 1019.53 1020.33 1021.04 1021.65 1022.14 1022.52 1022.80 1023.01
1014.44 1014.90 1015.20 1015.28 1015.14 1014.80 1014.34 1013.83 1013.36 1012.98 1012.76 1012.68 1012.76 1012.96 1013.24 1013.57 1013.91 1014.23 1014.52 1014.77 1014.97 1015.13 1015.23 1015.29 1015.31 1015.30 1015.29 1015.31 1015.40 1015.58 1015.89 1016.33 1016.91 1017.59 1018.35 1019.14 1019.93 1020.68 1021.35 1021.93 1022.42 1022.82 1023.15
1014.78 1015.28 1015.63 1015.78 1015.71 1015.44 1015.03 1014.55 1014.08 1013.68 1013.42 1013.30 1013.33 1013.48 1013.72 1014.02 1014.35 1014.67 1014.97 1015.24 1015.47 1015.65 1015.78 1015.85 1015.87 1015.85 1015.81 1015.79 1015.81 1015.91 1016.12 1016.45 1016.90 1017.47 1018.12 1018.82 1019.55 1020.26 1020.94 1021.56 1022.13 1022.63 1023.07
1015.11 1015.64 1016.05 1016.29 1016.31 1016.13 1015.80 1015.38 1014.94 1014.55 1014.27 1014.11 1014.09 1014.19 1014.38 1014.63 1014.92 1015.23 1015.52 1015.79 1016.03 1016.22 1016.37 1016.45 1016.48 1016.47 1016.43 1016.40 1016.39 1016.44 1016.57 1016.80 1017.13 1017.56 1018.07 1018.64 1019.25 1019.88 1020.51 1021.13 1021.73 1022.29 1022.80
1015.42 1015.99 1016.47 1016.79 1016.93 1016.86 1016.63 1016.29 1015.91 1015.56 1015.27 1015.09 1015.02 1015.05 1015.17 1015.37 1015.60 1015.86 1016.11 1016.36 1016.59 1016.78 1016.93 1017.03 1017.08 1017.10 1017.09 1017.07 1017.07 1017.10 1017.19 1017.35 1017.57 1017.87 1018.24 1018.66 1019.12 1019.63 1020.17 1020.73 1021.31 1021.89 1022.45
1015.73 1016.33 1016.88 1017.30 1017.55 1017.60 1017.49 1017.26 1016.95 1016.64 1016.37 1016.16 1016.04 1016.02 1016.07 1016.18 1016.34 1016.53 1016.73 1016.93 1017.12 1017.29 1017.44 1017.55 1017.63 1017.69 1017.72 1017.75 1017.78 1017.83 1017.91 1018.02 1018.18 1018.37 1018.60 1018.88 1019.19 1019.56 1019.98 1020.46 1020.99 1021.55 1022.12
1016.04 1016.68 1017.30 1017.81 1018.16 1018.33 1018.34 1018.21 1017.99 1017.73 1017.48 1017.27 1017.12 1017.03 1017.00 1017.03 1017.11 1017.21 1017.34 1017.48 1017.62 1017.76 1017.90 1018.01 1018.12 1018.21 1018.30 1018.38 1018.47 1018.56 1018.66 1018.77 1018.88 1019.00 1019.14 1019.29 1019.48 1019.72 1020.02 1020.40 1020.85 1021.36 1021.92
1016.36 1017.05 1017.72 1018.29 1018.73 1019.01 1019.12 1019.10 1018.96 1018.77 1018.55 1018.34 1018.16 1018.03 1017.94 1017.89 1017.88 1017.91 1017.97 1018.04 1018.13 1018.23 1018.34 1018.46 1018.57 1018.70 1018.83 1018.96 1019.11 1019.25 1019.39 1019.51 1019.62 1019.71 1019.79 1019.86 1019.96 1020.10 1020.30 1020.59 1020.96 1021.42 1021.93
1016.70 1017.42 1018.12 1018.75 1019.25 1019.60 1019.81 1019.87 1019.82 1019.69 1019.52 1019.32 1019.13 1018.96 1018.82 1018.72 1018.65 1018.61 1018.61 1018.63 1018.68 1018.74 1018.83 1018.93 1019.04 1019.18 1019.34 1019.51 1019.70 1019.89 1020.06 1020.22 1020.35 1020.44 1020.50 1020.54 1020.58 1020.66 1020.79 1021.01 1021.32 1021.71 1022.16
1017.07 1017.80 1018.51 1019.16 1019.69 1020.09 1020.36 1020.50 1020.52 1020.45 1020.32 1020.15 1019.97 1019.79 1019.62 1019.48 1019.38 1019.31 1019.27 1019.26 1019.28 1019.32 1019.39 1019.47 1019.58 1019.71 1019.87 1020.06 1020.26 1020.47 1020.68 1020.87 1021.02 1021.14 1021.21 1021.26 1021.29 1021.35 1021.44 1021.61 1021.86 1022.19 1022.59
1017.45 1018.17 1018.87 1019.50 1020.04 1020.46 1020.77 1020.96 1021.04 1021.03 1020.94 1020.81 1020.64 1020.47 1020.31 1020.16 1020.05 1019.97 1019.93 1019.92 1019.94 1019.98 1020.03 1020.11 1020.20 1020.31 1020.45 1020.62 1020.81 1021.03 1021.24 1021.45 1021.63 1021.78 1021.89 1021.96 1022.02 1022.08 1022.17 1022.31 1022.52 1022.79 1023.13
1017.84 1018.53 1019.18 1019.77 1020.28 1020.71 1021.03 1021.26 1021.38 1021.41 1021.37 1021.28 1021.15 1021.00 1020.85 1020.73 1020.64 1020.59 1020.57 1020.59 1020.63 1020.68 1020.75 1020.81 1020.89 1020.98 1021.08 1021.21 1021.37 1021.56 1021.76 1021.97 1022.16 1022.34 1022.49 1022.60 1022.69 1022.78 1022.88 1023.01 1023.19 1023.41 1023.68
1018.22 1018.85 1019.44 1019.97 1020.44 1020.85 1021.17 1021.41 1021.56 1021.64 1021.63 1021.57 1021.47 1021.36 1021.25 1021.16 1021.11 1021.11 1021.15 1021.21 1021.30 1021.39 1021.48 1021.56 1021.62 1021.68 1021.75 1021.83 1021.94 1022.08 1022.24 1022.43 1022.63 1022.82 1023.00 1023.15 1023.29 1023.40 1023.52 1023.64 1023.79 1023.97 1024.17
1018.59 1019.15 1019.65 1020.12 1020.54 1020.91 1021.22 1021.47 1021.64 1021.73 1021.76 1021.73 1021.67 1021.59 1021.51 1021.47 1021.47 1021.53 1021.63 1021.76 1021.91 1022.05 1022.18 1022.27 1022.34 1022.38 1022.41 1022.44 1022.49 1022.58 1022.70 1022.86 1023.04 1023.23 1023.43 1023.61 1023.77 1023.91 1024.04 1024.15 1024.27 1024.40 1024.53
1018.94 1019.41 1019.84 1020.23 1020.60 1020.93 1021.23 1021.47 1021.65 1021.76 1021.81 1021.80 1021.77 1021.72 1021.68 1021.68 1021.73 1021.84 1022.00 1022.20 1022.41 1022.61 1022.78 1022.91 1022.99 1023.02 1023.02 1023.02 1023.03 1023.06 1023.14 1023.26 1023.41 1023.59 1023.79 1023.98 1024.15 1024.30 1024.43 1024.53 1024.61 1024.68 1024.76
1019.26 1019.66 1020.01 1020.35 1020.67 1020.97 1021.24 1021.48 1021.66 1021.78 1021.85 1021.86 1021.84 1021.81 1021.80 1021.84 1021.93 1022.08 1022.29 1022.54 1022.81 1023.06 1023.27 1023.43 1023.53 1023.57 1023.57 1023.54 1023.52 1023.52 1023.55 1023.64 1023.76 1023.92 1024.11 1024.29 1024.46 1024.60 1024.71 1024.79 1024.83 1024.86 1024.87
1019.56 1019.89 1020.20 1020.49 1020.77 1021.05 1021.32 1021.54 1021.73 1021.86 1021.93 1021.95 1021.95 1021.94 1021.95 1022.00 1022.12 1022.30 1022.54 1022.82 1023.12 1023.41 1023.66 1023.85 1023.97 1024.03 1024.03 1024.00 1023.97 1023.95 1023.96 1024.01 1024.11 1024.24 1024.40 1024.56 1024.71 1024.83 1024.92 1024.97 1024.98 1024.95 1024.91
1019.84 1020.13 1020.40 1020.67 1020.94 1021.20 1021.46 1021.69 1021.87 1022.01 1022.09 1022.13 1022.14 1022.14 1022.16 1022.23 1022.36 1022.55 1022.80 1023.10 1023.41 1023.71 1023.97 1024.18 1024.32 1024.40 1024.42 1024.40 1024.37 1024.34 1024.34 1024.38 1024.45 1024.56 1024.69 1024.82 1024.93 1025.03 1025.08 1025.10 1025.07 1025.02 1024.94
1020.11 1020.38 1020.64 1020.90 1021.16 1021.43 1021.68 1021.91 1022.10 1022.25 1022.35 1022.40 1022.43 1022.45 1022.49 1022.57 1022.70 1022.88 1023.13 1023.41 1023.70 1023.99 1024.25 1024.46 1024.61 1024.70 1024.74 1024.74 1024.72 1024.71 1024.71 1024.73 1024.79 1024.87 1024.96 1025.05 1025.14 1025.19 1025.22 1025.21 1025.16 1025.08 1024.98
1020.35 1020.63 1020.90 1021.16 1021.43 1021.70 1021.96 1022.19 1022.40 1022.56 1022.67 1022.75 1022.81 1022.86 1022.91 1023.00 1023.13 1023.31 1023.53 1023.78 1024.05 1024.30 1024.54 1024.73 1024.87 1024.96 1025.01 1025.03 1025.03 1025.03 1025.04 1025.06 1025.10 1025.15 1025.21 1025.27 1025.31 1025.33 1025.33 1025.30 1025.23 1025.15 1025.04
1020.58 1020.88 1021.16 1021.43 1021.71 1021.99 1022.25 1022.49 1022.71 1022.89 1023.03 1023.15 1023.24 1023.32 1023.41 1023.52 1023.65 1023.82 1024.01 1024.22 1024.44 1024.65 1024.84 1025.00 1025.12 1025.20 1025.26 1025.28 1025.30 1025.31 1025.32 1025.34 1025.36 1025.39 1025.42 1025.44 1025.44 1025.44 1025.41 1025.36 1025.30 1025.22 1025.13
1020.77 1021.09 1021.40 1021.69 1021.98 1022.26 1022.52 1022.77 1022.99 1023.19 1023.37 1023.52 1023.65 1023.78 1023.91 1024.04 1024.19 1024.35 1024.52 1024.69 1024.86 1025.01 1025.15 1025.27 1025.35 1025.42 1025.47 1025.50 1025.52 1025.53 1025.54 1025.56 1025.56 1025.57 1025.57 1025.55 1025.53 1025.50 1025.45 1025.40 1025.34 1025.28 1025.20
1020.93 1021.28 1021.60 1021.91 1022.20 1022.47 1022.73 1022.98 1023.20 1023.42 1023.61 1023.80 1023.98 1024.15 1024.32 1024.49 1024.66 1024.82 1024.98 1025.12 1025.25 1025.35 1025.44 1025.51 1025.56 1025.60 1025.63 1025.66 1025.68 1025.69 1025.70 1025.70 1025.70 1025.68 1025.65 1025.61 1025.57 1025.51 1025.46 1025.40 1025.36 1025.31 1025.27
Thickness
5708 5708 5708 5707 5706 5705 5705 5705 5703 5704 5703 5703 5702 5703 5702 5702 5702 5703 5702 5704 5705 5704 5704 5704 5703 5702 5701 5701 5700 5698 5695 5692 5691 5685 5679 5677 5679 5679 5679 5679 5678 5676 5675
5698 5698 5697 5697 5696 5695 5694 5696 5695 5696 5697 5697 5699 5698 5695 5693 5693 5693 5695 5696 5696 5697 5697 5697 5698 5698 5697 5696 5695 5694 5690 5686 5686 5682 5675 5668 5666 5667 5668 5669 5669 5667 5666
5687 5686 5685 5685 5685 5684 5684 5687 5688 5688 5689 5691 5691 5690 5688 5683 5683 5683 5685 5685 5687 5688 5689 5691 5692 5693 5692 5691 5691 5691 5688 5683 5681 5682 5678 5668 5662 5657 5656 5658 5659 5659 5658
5679 5676 5674 5672 5672 5673 5675 5676 5677 5678 5679 5681 5682 5682 5680 5676 5675 5674 5675 5676 5677 5678 5680 5683 5684 5685 5685 5684 5684 5685 5684 5681 5676 5675 5676 5674 5669 5658 5649 5647 5649 5650 5648
5668 5666 5664 5662 5662 5663 5664 5665 5665 5666 5667 5669 5670 5672 5671 5669 5667 5666 5667 5667 5667 5668 5670 5673 5674 5675 5676 5675 5676 5676 5676 5674 5671 5669 5668 5665 5662 5659 5652 5642 5639 5638 5638
5659 5657 5655 5653 5652 5653 5654 5655 5655 5655 5656 5656 5658 5659 5659 5659 5658 5657 5656 5656 5656 5658 5660 5662 5664 5665 5666 5666 5666 5667 5667 5665 5664 5662 5661 5659 5657 5652 5648 5641 5634 5630 5627
5648 5646 5645 5643 5640 5640 5642 5643 5643 5644 5644 5645 5645 5646 5647 5647 5646 5645 5644 5645 5646 5647 5649 5652 5653 5654 5654 5655 5656 5656 5655 5654 5653 5652 5651 5650 5650 5648 5644 5637 5629 5622 5617
5638 5635 5634 5632 5630 5629 5630 5631 5631 5632 5632 5632 5633 5633 5635 5634 5633 5633 5632 5634 5635 5636 5638 5639 5641 5642 5643 5644 5644 5643 5642 5642 5642 5641 5640 5639 5639 5639 5637 5631 5625 5615 5608
5627 5624 5622 5621 5619 5618 5618 5620 5620 5619 5619 5619 5619 5620 5620 5621 5620 5620 5621 5622 5623 5625 5626 5627 5628 5629 5631 5632 5632 5631 5629 5629 5629 5628 5627 5627 5626 5627 5627 5625 5621 5614 5603
5617 5615 5611 5609 5607 5606 5607 5607 5607 5607 5607 5607 5607 5608 5607 5608 5608 5608 5609 5610 5611 5612 5614 5615 5615 5616 5617 5619 5619 5618 5617 5617 5616 5615 5615 5614 5613 5614 5614 5613 5610 5607 5601
5609 5605 5601 5598 5596 5596 5595 5595 5595 5594 5594 5594 5595 5596 5595 5595 5596 5596 5596 5597 5598 5599 5600 5601 5603 5603 5604 5605 5606 5605 5605 5604 5603 5602 5602 5601 5601 5601 5601 5600 5598 5595 5592
5603 5598 5594 5590 5587 5585 5585 5583 5583 5583 5582 5582 5582 5583 5583 5583 5583 5583 5584 5585 5586 5586 5587 5588 5589 5590 5590 5591 5592 5592 5592 5591 5590 5589 5589 5588 5589 5588 5587 5586 5584 5582 5579
5595 5589 5586 5582 5578 5576 5574 5573 5572 5571 5570 5570 5570 5571 5571 5571 5571 5571 5572 5573 5574 5574 5574 5575 5575 5576 5577 5577 5578 5579 5578 5578 5577 5576 5576 5575 5576 5574 5573 5572 5570 5568 5567
5588 5582 5577 5573 5569 5566 5564 5562 5561 5560 5560 5559 5559 5559 5559 5559 5560 5561 5561 5561 5562 5562 5562 5562 5563 5564 5565 5566 5566 5566 5565 5565 5565 5564 5564 5563 5563 5561 5561 5559 5556 5555 5553
5581 5575 5569 5564 5560 5557 5554 5553 5551 5551 5550 5550 5548 5548 5548 5548 5549 5550 5550 5550 5550 5550 5550 5551 5551 5552 5553 5553 5554 5554 5554 5553 5552 5552 5552 5552 5552 5551 5550 5548 5545 5543 5540
5575 5568 5562 5557 5553 5550 5547 5545 5543 5541 5541 5541 5540 5539 5539 5539 5539 5539 5539 5539 5539 5539 5539 5539 5540 5540 5541 5542 5543 5543 5542 5542 5541 5540 5540 5540 5540 5539 5538 5537 5536 5533 5530
5569 5562 5556 5551 5546 5543 5540 5537 5535 5534 5533 5533 5532 5532 5531 5531 5531 5531 5529 5529 5528 5528 5528 5528 5528 5528 5529 5532 5533 5533 5533 5532 5531 5530 5529 5529 5528 5527 5527 5526 5525 5523 5521
5563 5556 5550 5544 5540 5536 5533 5531 5529 5528 5527 5526 5526 5525 5524 5523 5523 5522 5521 5520 5520 5519 5519 5518 5519 5519 5520 5522 5524 5524 5523 5522 5520 5519 5518 5516 5516 5516 5516 5515 5514 5512 5511
5557 5550 5544 5539 5534 5530 5527 5525 5523 5522 5521 5520 5520 5519 5518 5517 5515 5514 5513 5512 5512 5511 5511 5510 5510 5511 5511 5513 5514 5514 5513 5511 5509 5509 5508 5507 5506 5506 5506 5505 5502 5501 5500
5551 5545 5539 5533 5529 5525 5522 5520 5517 5516 5515 5515 5514 5513 5512 5511 5509 5508 5507 5506 5505 5504 5504 5504 5503 5503 5503 5504 5505 5505 5503 5500 5499 5498 5498 5498 5497 5497 5497 5495 5493 5491 5491
5545 5540 5534 5528 5524 5521 5518 5514 5512 5510 5510 5510 5509 5508 5506 5505 5504 5503 5502 5501 5500 5499 5498 5497 5496 5496 5496 5496 5497 5497 5495 5493 5491 5490 5489 5490 5490 5490 5490 5488 5486 5485 5485
5540 5534 5528 5523 5520 5517 5514 5510 5508 5507 5507 5506 5504 5503 5502 5502 5500 5499 5497 5497 5495 5493 5492 5491 5490 5489 5489 5489 5489 5489 5488 5487 5485 5483 5483 5483 5484 5484 5484 5483 5482 5482 5481
5536 5530 5525 5520 5516 5513 5511 5507 5505 5505 5503 5501 5500 5499 5498 5497 5496 5495 5493 5492 5490 5488 5486 5485 5483 5482 5482 5482 5482 5482 5481 5481 5479 5479 5479 5480 5480 5480 5479 5479 5478 5477 5475
5533 5527 5522 5517 5513 5511 5509 5506 5504 5503 5501 5498 5496 5495 5493 5492 5491 5490 5490 5488 5486 5484 5483 5481 5479 5477 5476 5476 5476 5476 5476 5476 5475 5475 5476 5477 5477 5476 5475 5475 5473 5472 5471
5531 5525 5520 5516 5512 5510 5507 5505 5503 5501 5498 5496 5494 5492 5490 5488 5486 5485 5484 5484 5484 5484 5482 5480 5478 5475 5473 5473 5473 5472 5472 5471 5471 5471 5471 5471 5470 5469 5469 5468 5468 5467 5467
5530 5524 5520 5516 5513 5510 5507 5505 5503 5501 5497 5494 5492 5490 5488 5486 5484 5483 5481 5482 5482 5483 5483 5481 5479 5476 5474 5473 5472 5471 5471 5470 5470 5468 5466 5465 5464 5464 5463 5463 5463 5463 5462